Vorticity
3 2 3 2 3 4 6 7 4 4 4 4 3 3 3 4 4 4 4 3 3 4 6 5 6 6 6 6 7 7 7 7 6
6 5 5 5 6 5 5 2 4 6 7 6 6 4 3 3 3 4 4 4 4 4 3 4 5 5 5 6 6 6 6 7 7
7 7 7 7 7 6 6 6 7 7 5 7 8 8 6 4 3 3 3 4 4 4 4 5 6 4 4 5 5 6 6 6 6
6 6 5 5 5 5 4 4 4 4 4 5 2 2 4 3 4 3 3 3 4 4 4 3 10 -1 3 5 5 4 5 5 6
6 5 6 6 6 6 5 5 5 6 5 5 5 5 4 4 5 5 3 3 4 5 4 4 4 8 3 -3 4 4 5 5 5
6 5 5 5 5 5 5 5 5 5 5 5 6 5 6 5 6 5 3 6 5 3 5 5 4 4 8 5 -0 1 4 5 5
4 4 4 4 4 4 5 5 5 6 5 4 5 4 5 4 4 5 6 4 3 9 8 6 4 4 4 5 5 2 2 5 5
4 4 4 4 4 4 4 5 5 6 7 7 7 7 6 6 5 5 5 5 6 5 1 6 5 8 5 4 4 5 4 2 5
4 4 4 4 4 5 6 7 9 10 10 11 12 11 11 10 9 9 9 8 6 6 6 5 3 3 7 6 4 4 4 4 3
5 5 4 4 6 8 11 11 12 11 11 10 10 10 11 10 10 9 9 10 10 9 9 8 7 3 5 6 9 5 4 5 3
4 3 6 12 15 14 12 11 10 10 10 10 10 11 12 11 11 11 11 10 9 9 9 8 8 7 7 0 4 5 8 5 5
5 11 15 13 10 10 10 9 10 10 11 12 11 11 11 12 14 14 14 14 15 14 13 12 12 10 9 8 9 4 -1 5 7
14 12 11 10 9 10 12 14 14 14 13 14 15 18 18 17 15 13 10 11 12 14 17 18 19 17 13 11 12 9 11 4 10
11 10 10 11 12 15 17 16 22 25 21 17 11 9 9 9 9 10 11 11 11 12 11 12 14 14 14 16 16 15 15 13 0
10 10 10 14 18 20 14 18 15 10 9 9 10 12 12 10 12 11 10 12 12 10 9 10 10 9 8 11 14 18 21 16 14
9 11 13 16 17 13 13 9 7 7 8 8 8 9 10 9 10 11 12 12 11 10 11 11 12 12 17 20 21 22 29 21 18
10 13 16 17 15 12 8 7 7 7 7 7 8 9 8 8 7 10 11 9 9 11 13 14 20 22 17 19 22 23 22 24 25
14 15 15 15 12 10 8 8 7 7 8 8 8 9 6 6 9 8 7 9 10 12 17 21 11 9 9 19 23 15 21 30 25
14 16 15 12 9 9 8 8 8 8 8 8 7 7 7 7 5 8 7 8 9 9 11 16 17 13 14 15 10 18 16 24 24
15 15 14 11 10 9 8 8 8 8 7 7 8 7 7 7 8 6 7 8 8 7 7 4 10 10 13 12 15 6 22 18 18
Height
3184 3183 3182 3181 3179 3178 3176 3174 3173 3171 3170 3169 3167 3166 3165 3163 3162 3160 3159 3157 3156 3155 3154 3152 3152 3151 3150 3149 3148 3147 3145 3143 3142
3183 3181 3180 3179 3177 3175 3174 3172 3171 3169 3168 3166 3165 3164 3163 3161 3160 3158 3157 3155 3154 3153 3152 3151 3150 3149 3148 3148 3147 3146 3145 3144 3142
3181 3179 3178 3176 3174 3172 3171 3169 3168 3166 3164 3163 3161 3160 3159 3158 3157 3156 3155 3154 3152 3150 3149 3148 3147 3147 3146 3145 3144 3144 3144 3143 3142
3178 3177 3175 3173 3171 3170 3168 3166 3165 3163 3161 3160 3158 3157 3156 3155 3154 3153 3152 3151 3150 3148 3147 3146 3145 3144 3144 3143 3142 3141 3140 3140 3140
3175 3174 3172 3170 3168 3166 3164 3163 3161 3160 3158 3156 3154 3153 3152 3151 3150 3149 3148 3147 3146 3145 3144 3144 3143 3142 3141 3140 3139 3139 3138 3137 3136
3172 3170 3168 3167 3164 3162 3160 3158 3156 3155 3153 3151 3149 3147 3146 3145 3145 3144 3142 3142 3141 3141 3140 3140 3140 3139 3138 3137 3136 3135 3134 3134 3133
3169 3167 3165 3162 3160 3158 3155 3153 3151 3149 3147 3145 3144 3142 3140 3138 3138 3138 3136 3135 3136 3136 3135 3135 3134 3135 3134 3133 3132 3132 3132 3131 3130
3165 3163 3160 3158 3155 3152 3149 3147 3144 3142 3140 3138 3136 3135 3133 3131 3130 3129 3129 3128 3129 3129 3129 3129 3128 3129 3129 3128 3128 3128 3127 3127 3127
3161 3158 3155 3152 3149 3145 3142 3139 3136 3133 3131 3130 3128 3127 3125 3124 3122 3122 3121 3120 3120 3120 3121 3121 3122 3122 3122 3122 3122 3122 3122 3122 3122
3155 3152 3148 3145 3142 3138 3134 3131 3128 3125 3124 3122 3120 3119 3117 3116 3114 3113 3112 3112 3112 3112 3112 3113 3113 3113 3114 3114 3115 3115 3116 3116 3116
3149 3145 3141 3137 3133 3130 3126 3123 3121 3119 3117 3115 3113 3111 3110 3108 3106 3105 3104 3104 3103 3102 3102 3102 3103 3104 3105 3106 3107 3107 3107 3108 3109
3142 3138 3133 3130 3126 3123 3119 3117 3115 3113 3111 3109 3107 3105 3103 3101 3099 3098 3097 3096 3096 3096 3095 3095 3095 3095 3096 3096 3097 3098 3099 3100 3101
3135 3131 3127 3124 3120 3116 3113 3111 3108 3107 3105 3103 3102 3100 3098 3096 3094 3093 3092 3091 3091 3090 3088 3087 3087 3087 3086 3087 3087 3088 3090 3091 3092
3129 3125 3122 3118 3113 3110 3107 3105 3103 3101 3100 3099 3098 3096 3094 3092 3090 3089 3088 3087 3086 3084 3083 3081 3079 3078 3077 3075 3074 3075 3076 3079 3081
3123 3119 3116 3112 3108 3104 3103 3101 3100 3099 3098 3097 3095 3093 3091 3088 3087 3085 3084 3082 3081 3078 3076 3074 3072 3071 3068 3065 3062 3061 3061 3063 3067
3117 3114 3110 3107 3104 3101 3099 3098 3098 3097 3095 3094 3092 3090 3087 3085 3083 3081 3080 3079 3076 3072 3069 3067 3064 3061 3059 3054 3050 3049 3047 3048 3051
3113 3109 3106 3103 3101 3099 3098 3096 3095 3095 3093 3092 3090 3088 3086 3082 3080 3079 3077 3074 3071 3067 3064 3060 3056 3053 3050 3047 3043 3039 3037 3036 3038
3107 3105 3102 3100 3099 3098 3096 3095 3093 3092 3091 3090 3089 3086 3084 3079 3077 3076 3074 3072 3068 3065 3060 3056 3052 3048 3044 3041 3037 3033 3029 3027 3028
3103 3101 3098 3097 3096 3095 3094 3093 3091 3089 3088 3087 3086 3085 3083 3079 3076 3072 3071 3069 3064 3060 3057 3053 3048 3044 3040 3035 3033 3029 3027 3024 3023
3099 3097 3096 3095 3094 3093 3091 3090 3089 3087 3086 3084 3084 3083 3081 3078 3075 3072 3069 3064 3061 3059 3056 3052 3047 3041 3037 3033 3031 3028 3024 3021 3021